This is the latest recevied weather packets stored in our database for station/object KI6PPU. If no packets are shown the sender has not sent any weather packets the latest 10 day(s).
| Time | Temp. | Humidity | Pressure | Rain* | Wind** | Luminosity | Snow |
|---|---|---|---|---|---|---|---|
| 1777849420 | 16.67° C | 70% | 1014.6 hPa | 0 mm | - | 154 W/m² | - |
| 1777849119 | 16.67° C | 72% | 1014.6 hPa | 0 mm | - | 182 W/m² | - |
| 1777848814 | 16.67° C | 71% | 1014.7 hPa | 0 mm | - | 213 W/m² | - |
| 1777848511 | 17.22° C | 71% | 1014.7 hPa | 0 mm | - | 234 W/m² | - |
| 1777848208 | 17.22° C | 73% | 1014.6 hPa | 0 mm | - | 230 W/m² | - |
| 1777847906 | 16.67° C | 72% | 1014.8 hPa | 0 mm | - | 214 W/m² | - |
| 1777847603 | 16.11° C | 72% | 1014.6 hPa | 0 mm | - | 212 W/m² | - |
| 1777847299 | 16.11° C | 72% | 1014.7 hPa | 0 mm | - | 234 W/m² | - |
| 1777846997 | 15.56° C | 73% | 1014.7 hPa | 0 mm | - | 226 W/m² | - |
| 1777846695 | 15.56° C | 72% | 1014.9 hPa | 0 mm | - | 213 W/m² | - |
| 1777846394 | 16.11° C | 73% | 1014.9 hPa | 0 mm | - | 198 W/m² | - |
| 1777846089 | 15.56° C | 73% | 1014.9 hPa | 0 mm | - | 181 W/m² | - |
| 1777845786 | 15.56° C | 74% | 1014.8 hPa | 0 mm | - | 170 W/m² | - |
| 1777845483 | 15.56° C | 74% | 1014.8 hPa | 0 mm | - | 168 W/m² | - |
| 1777845180 | 15.56° C | 75% | 1014.7 hPa | 0 mm | - | 174 W/m² | - |
| 1777844878 | 15.56° C | 74% | 1015 hPa | 0 mm | - | 180 W/m² | - |
| 1777844575 | 15.56° C | 73% | 1015 hPa | 0 mm | - | 163 W/m² | - |
| 1777844272 | 15.56° C | 75% | 1014.9 hPa | 0 mm | - | 142 W/m² | - |
| 1777843970 | 15.56° C | 75% | 1014.9 hPa | 0 mm | - | 138 W/m² | - |
| 1777843666 | 15.56° C | 74% | 1014.8 hPa | 0 mm | - | 143 W/m² | - |
| 1777843364 | 15.56° C | 73% | 1015 hPa | 0 mm | - | 136 W/m² | - |
| 1777843061 | 15.56° C | 73% | 1015.2 hPa | 0 mm | - | 139 W/m² | - |
| 1777842758 | 16.11° C | 72% | 1015 hPa | 0 mm | - | 155 W/m² | - |
| 1777842453 | 15.56° C | 73% | 1014.8 hPa | 0 mm | - | 164 W/m² | - |
| 1777842151 | 16.11° C | 72% | 1015.2 hPa | 0 mm | - | 159 W/m² | - |
* Rain latest hour (hover to see other rain measurements)
** Current wind speed in m/s (hover to see current wind gust speed)